Miscellaneous Local Product
Issued by NWS Hastings, NE

Home | Current Version | Previous Version | Graphics & Text | Print | Product List | Glossary On
Versions: 1 2 3 4 5 6 7 8 9 10 11 12 13 14 15 16 17 18 19 20 21 22 23 24 25 26 27 28 29 30 31 32 33 34 35 36 37 38 39 40 41 42 43 44 45 46 47 48 49 50
000
AXUS43 KGID 240302
MISGRI

GID CWA HOURLY WEATHER ROUNDUP
NATIONAL WEATHER SERVICE HASTINGS NE
900 PM CST TUE DEC 23 2014

NOTE: "FAIR" INDICATES FEW OR NO CLOUDS BELOW 12,000 FEET WITH NO
SIGNIFICANT WEATHER AND/OR OBSTRUCTIONS TO VISIBILITY.

...SOUTH CENTRAL NEBRASKA...

CITY           SKY/WX    TMP DP  RH WIND       PRES   REMARKS
GRAND ISLAND   CLOUDY    31  25  78 N23       30.01R WCI  18
HASTINGS       CLOUDY    31  25  78 N21G33    29.99R WCI  18
KEARNEY        CLOUDY    30  23  74 NW20G29   30.02R WCI  18
ORD            CLOUDY    29  24  82 NW22G33   30.02S WCI  15
YORK           CLOUDY    32  30  93 N16G24    29.95S WCI  21
AURORA         CLOUDY    32  28  86 N24G35    29.98R WCI  19
LEXINGTON      CLOUDY    31  25  76 N20G31    30.05S WCI  19
HOLDREGE       CLOUDY    30  24  79 N18G30    30.02R WCI  18
HEBRON         FLURRIES  33  29  85 N23G29    29.96R WCI  21

...NEBRASKA PANHANDLE...

CITY           SKY/WX    TMP DP  RH WIND       PRES   REMARKS
CHADRON        FAIR      12   6  77 W6        30.14S WCI   3
ALLIANCE       FAIR      19  16  88 W6        30.11S WCI  11
SCOTTSBLUFF    FAIR      18  13  80 W7        30.15S WCI   9
SIDNEY         FAIR      22  15  75 NW13      30.12S WCI  10

...WESTERN AND NORTH CENTRAL NEBRASKA...

CITY           SKY/WX    TMP DP  RH WIND       PRES   REMARKS
VALENTINE      CLOUDY    29  23  78 NW14G25   30.08F WCI  18
AINSWORTH      CLOUDY    27  23  85 NW20G25   30.07S WCI  13
ONEILL         CLOUDY    30  28  92 NW24G31   30.03R WCI  16
BROKEN BOW     CLOUDY    29  23  78 N28G37    30.03S WCI  14
IMPERIAL       FAIR      25  19  78 NW14      30.11S WCI  13
NORTH PLATTE   FAIR      25  20  81 NW10      30.09S WCI  15
MCCOOK         CLOUDY    30  22  72 NW16G25   30.09R WCI  19

...EASTERN NEBRASKA...

CITY           SKY/WX    TMP DP  RH WIND       PRES   REMARKS
NORFOLK        CLOUDY    32  29  88 NW24G35   29.95R WCI  19
SO SIOUX CITY  CLOUDY    36  32  85 NW21      29.91S WCI  25
TEKAMAH        CLOUDY    37  33  85 NW21G29   29.91R WCI  26
COLUMBUS       CLOUDY    34  27  75 NW20G29   29.97R WCI  22
ALBION         CLOUDY    31  26  81 N22G37    29.98R WCI  19
OMAHA EPPLEY   LGT SNOW  37  35  92 N13       29.90R FOG     WCI  29
OFFUTT AFB     LGT SNOW  35  34  94 NW8       29.89R WCI  29
MILLARD        LGT RAIN  36  34  92 NW12G20   29.89R WCI  28
LINCOLN        LGT RAIN  35  32  88 N17       29.94R WCI  25
NEBRASKA CITY  LGT SNOW  33  33 100 N8        29.88R WCI  26
BEATRICE       LGT RAIN  34  32  94 NW17      29.92R WCI  23
FALLS CITY     LGT RAIN  35  35 100 NW9       29.88R WCI  28

...NORTHERN KANSAS...

CITY           SKY/WX    TMP DP  RH WIND       PRES   REMARKS
GOODLAND       CLOUDY    27  22  81 N18G25    30.11R WCI  14
HILL CITY      CLOUDY    32  23  69 N28G35    30.06R WCI  18
NORTON         MOCLDY    28  21  74 NW22G31   30.05R WCI  15
PHILLIPSBURG   CLOUDY    36  27  69 NW17G26   30.05R WCI  25
SMITH CENTER   MOCLDY    30  27  86 NW21G29   30.02R WCI  17
BELOIT         CLOUDY    34  28  80 NW20G28   29.99R WCI  22
HAYS           CLOUDY    34  21  60 N25G35    30.02R WCI  21
RUSSELL        CLOUDY    32  29  88 NW22G29   30.00R WCI  19
CONCORDIA      LGT SNOW  33  31  92 N16G29    29.96R FOG     WCI  23
SALINA         CLOUDY    35  32  88 NW22G28   29.97R WCI  23
TOPEKA         CLOUDY    38  33  82 NW17G28   29.88R WCI  28



USA.gov is the U.S. government's official web portal to all federal, state and local government web resources and services.